McMinnville, OR

8:06 PM PDT on April 27, 2017 (GMT -0700)
McMinnville Municipal

Weather History for KMMV - March, 2013

Change the Weather History Date:

Friday, March 1, 2013

  Actual Average Record
Temperature  
Mean Temperature 54 °F 44 °F  
Max Temperature 62 °F 53 °F 74 °F (1926)
Min Temperature 46 °F 35 °F 15 °F (1920)
Degree Days  
Heating Degree Days 11 21  
Month to date heating degree days 11 21  
Since 1 July heating degree days 3088 3400  
Cooling Degree Days 0 0  
Month to date cooling degree days 0 0  
Year to date cooling degree days 0 0  
Growing Degree Days 4 (Base 50)    
Moisture  
Dew Point 47 °F    
Average Humidity 79    
Maximum Humidity 93    
Minimum Humidity 64    
Precipitation  
Precipitation 0.00 in 0.13 in 1.10 in (1972)
Month to date precipitation 0.00 0.13  
Year to date precipitation 2.67 10.67  
Snow  
Snow 0.00 in - - ()
Month to date snowfall 0.0  
Snow Depth 0.00 in    
Sea Level Pressure  
Sea Level Pressure 30.41 in    
Wind  
Wind Speed 4 mph (SW)    
Max Wind Speed 13 mph    
Max Gust Speed 16 mph    
Visibility 10 miles    
Events      
T = Trace of Precipitation, MM = Missing Value Source: NWS Daily Summary

Daily Weather History Graph

Daily Weather History Graph

Search for Another Location

Airport or City:

Trip Planner

Search our weather history database for the weather conditions in past years. The results will help you decide how hot, cold, wet, or windy it might be!

Date:

Astronomy

Mar. 01, 2013 Rise Set
Actual Time 6:49 AM PST 6:00 PM PST
Civil Twilight 6:20 AM PST 6:29 PM PST
Nautical Twilight 5:46 AM PST 7:04 PM PST
Astronomical Twilight 5:12 AM PST 7:38 PM PST
Moon 10:55 PM PST (3/1) 8:26 AM PST (3/1)
Length of Visible Light 12h 09m
Length of Day
11h 10m
Waning Gibbous, 82% of the Moon is Illuminated
Mar 1
Waning Gibbous
Mar 4
Last Quarter
Mar 11
New
Mar 19
First Quarter
Mar 27
Full

Hourly Weather History & Observations

Time (PST) Temp. Windchill Dew Point Humidity Pressure Visibility Wind Dir Wind Speed Gust Speed Precip Events Conditions
12:53 AM 53.1 °F - 48.0 °F 83% 30.44 in 10.0 mi SSW 6.9 mph - N/A   Overcast
1:53 AM 53.1 °F - 48.0 °F 83% 30.46 in 10.0 mi WSW 4.6 mph - N/A   Overcast
2:53 AM 51.1 °F - 48.0 °F 89% 30.45 in 10.0 mi SW 4.6 mph - N/A   Overcast
3:53 AM 50.0 °F - 46.9 °F 89% 30.45 in 10.0 mi SSW 3.5 mph - N/A   Mostly Cloudy
4:53 AM 51.1 °F - 46.9 °F 86% 30.45 in 10.0 mi Calm Calm - N/A   Overcast
5:21 AM 51.8 °F - 46.4 °F 82% 30.44 in 10.0 mi Calm Calm - N/A   Overcast
5:53 AM 51.1 °F - 46.9 °F 86% 30.45 in 10.0 mi Calm Calm - N/A   Overcast
6:53 AM 48.9 °F - 45.0 °F 86% 30.44 in 10.0 mi Calm Calm - N/A   Partly Cloudy
7:13 AM 48.2 °F - 44.6 °F 87% 30.45 in 10.0 mi Calm Calm - N/A   Mostly Cloudy
8:53 AM 54.0 °F - 48.0 °F 80% 30.45 in 10.0 mi South 3.5 mph - N/A   Clear
9:53 AM 54.0 °F - 48.9 °F 83% 30.46 in 10.0 mi West 3.5 mph - N/A   Unknown
10:38 AM 57.2 °F - 48.2 °F 72% 30.45 in 10.0 mi South 8.1 mph - N/A   Mostly Cloudy
10:53 AM 57.9 °F - 48.9 °F 72% 30.45 in 10.0 mi SSW 8.1 mph - N/A   Scattered Clouds
11:53 AM 61.0 °F - 50.0 °F 67% 30.44 in 10.0 mi North - - N/A   Overcast
12:42 PM 59.0 °F - 48.2 °F 67% 30.43 in 10.0 mi SSW 10.4 mph - N/A   Mostly Cloudy
12:50 PM 60.8 °F - 50.0 °F 68% 30.42 in 10.0 mi SSW 11.5 mph - N/A   Overcast
12:53 PM 60.1 °F - 48.9 °F 67% 30.43 in 10.0 mi South 10.4 mph - N/A   Overcast
1:53 PM 59.0 °F - 48.9 °F 69% 30.41 in 10.0 mi SSW 8.1 mph - N/A   Overcast
2:53 PM 60.1 °F - 48.9 °F 67% 30.39 in 10.0 mi Calm Calm - N/A   Overcast
3:53 PM 61.0 °F - 48.9 °F 64% 30.38 in 10.0 mi West 4.6 mph - N/A   Overcast
4:53 PM 57.9 °F - 50.0 °F 75% 30.37 in 10.0 mi West 4.6 mph - N/A   Overcast
5:53 PM 55.9 °F - 48.0 °F 75% 30.36 in 10.0 mi West 4.6 mph - N/A   Mostly Cloudy
6:53 PM 53.1 °F - 46.0 °F 77% 30.35 in 10.0 mi West 3.5 mph - N/A   Clear
7:53 PM 46.9 °F - 44.1 °F 90% 30.35 in 10.0 mi SW 4.6 mph - N/A   Clear
8:53 PM 48.0 °F - 44.1 °F 86% 30.35 in 10.0 mi WSW 5.8 mph - N/A   Partly Cloudy
9:53 PM 46.0 °F 43.9 °F 43.0 °F 89% 30.35 in 10.0 mi SW 4.6 mph - N/A   Clear
10:53 PM 46.9 °F - 44.1 °F 90% 30.35 in 10.0 mi NW 3.5 mph - N/A   Scattered Clouds
11:53 PM 46.9 °F - 44.1 °F 90% 30.33 in 10.0 mi Calm Calm - N/A   Overcast